Presure
161 205 213 209 202 199 192 194 199 205 207 155 178 209 201 191 185 175 203 191 181 162 165 164 173 164 160 169 175 161 181 174 182 165 166 178 152 175 178 175 185 186 180 192 180 204 197
196 198 124 199 203 221 215 232 157 160 175 183 215 201 191 177 166 174 173 174 163 153 167 160 163 157 156 158 168 165 151 151 157 160 167 178 167 179 169 173 164 181 196 179 198 200 219
200 146 194 199 198 174 164 211 200 187 179 169 169 181 165 155 180 153 159 187 163 175 179 166 152 149 156 141 139 153 154 157 168 182 186 169 162 160 180 158 177 185 191 172 185 190 167
197 203 232 202 205 197 190 172 174 170 171 168 168 153 160 151 162 165 170 149 165 174 155 144 154 152 146 151 159 152 162 169 171 169 147 182 155 185 165 167 158 180 163 178 186 175 188
126 172 180 162 170 169 175 168 167 169 149 143 161 156 160 164 174 179 184 174 162 156 153 145 155 153 146 142 146 166 156 153 148 147 160 170 165 173 168 151 177 164 177 176 169 164 164
88 153 167 164 151 159 159 161 162 162 160 166 182 183 160 173 172 173 169 156 150 145 142 160 147 146 170 148 146 163 144 142 159 164 148 165 158 144 174 170 155 158 143 171 158 157 177
176 105 151 111 162 158 161 151 154 178 177 159 154 168 162 146 173 152 160 174 155 169 152 143 154 150 156 143 153 164 175 173 153 167 164 160 149 152 166 166 177 166 180 153 166 186 151
155 128 168 149 160 102 169 174 169 155 149 165 168 149 164 177 165 181 168 174 152 171 157 156 175 150 133 172 157 171 160 144 149 150 167 168 163 166 157 152 166 176 174 174 184 171 165
118 133 127 90 158 116 169 170 159 165 164 150 154 165 159 167 161 162 144 171 149 158 168 157 151 161 159 162 171 157 168 149 153 148 145 152 161 146 165 163 166 165 168 172 166 181 178
168 133 149 98 137 162 165 163 170 143 146 165 158 156 176 181 148 155 167 163 178 168 155 146 165 168 151 172 177 166 158 159 173 158 149 157 160 148 141 160 158 160 156 153 178 163 167
152 171 167 150 149 160 157 160 162 150 166 166 143 167 136 155 164 168 153 141 150 155 155 172 167 165 171 159 160 150 139 176 167 157 155 158 156 147 164 165 162 169 157 176 157 173 165
155 120 137 165 160 150 147 146 146 155 160 163 170 160 157 157 148 161 161 159 167 155 164 162 162 165 166 173 148 159 144 176 151 158 153 167 158 159 155 159 158 164 170 158 162 175 164
149 142 152 144 158 149 160 147 166 153 161 149 154 162 166 164 158 164 153 140 152 156 166 155 158 158 164 173 158 148 150 167 166 157 149 152 173 151 163 140 148 133 145 166 172 159 168
141 159 152 152 124 135 169 160 124 158 148 151 161 152 149 159 160 153 160 153 154 158 146 151 163 159 155 163 149 160 173 147 163 167 157 164 145 152 156 157 166 171 161 153 171 169 164
167 135 164 145 162 154 163 159 176 150 159 163 141 155 154 161 164 160 152 146 165 162 166 168 166 159 174 167 170 151 144 139 152 165 164 151 148 132 148 148 144 152 155 159 158 146 161
137 164 165 137 168 159 132 125 155 150 145 146 157 166 144 156 160 144 158 162 155 157 147 162 159 157 161 168 151 142 147 150 149 146 140 157 168 153 172 163 161 174 170 159 162 182 156
163 163 154 142 159 143 155 157 153 132 131 150 138 155 150 148 162 146 164 142 158 159 146 154 149 140 161 167 154 148 147 143 139 139 138 157 144 171 167 174 167 170 173 174 168 169 181
172 160 153 128 125 134 159 149 127 160 161 158 166 148 144 159 153 155 159 161 156 163 164 166 169 168 167 155 167 148 149 154 179 151 173 158 148 177 142 140 152 145 159 184 173 182 182
164 165 166 169 175 120 130 137 170 170 132 128 161 151 153 152 147 161 135 164 149 168 165 160 160 170 168 164 167 160 174 171 142 155 134 180 171 161 148 153 182 178 176 185 159 166 174
171 173 168 176 136 145 150 175 171 171 170 160 164 148 129 144 154 165 161 171 151 169 144 148 151 139 150 170 158 168 175 179 151 172 136 188 158 154 158 189 187 194 167 186 189 177 181
173 160 179 170 173 144 118 118 142 160 150 147 168 169 148 149 158 173 157 162 171 135 138 160 161 158 172 183 185 188 147 182 159 176 180 158 149 167 173 166 190 190 161 197 186 195 170
170 176 176 174 185 148 159 166 157 171 167 144 129 178 147 144 145 162 154 158 156 169 158 137 158 144 168 180 162 164 133 166 179 155 187 160 174 203 197 169 176 199 196 187 196 181 186
185 172 161 163 177 171 177 137 184 179 162 177 146 143 153 159 157 161 154 143 159 162 177 142 176 158 137 165 153 138 188 160 177 188 199 170 180 197 211 209 181 191 196 194 196 194 175
177 183 174 168 175 168 178 158 139 178 153 136 185 162 155 160 156 166 132 159 169 169 172 142 141 153 175 157 172 183 179 159 183 190 187 185 173 191 197 204 198 211 184 184 207 170 186
194 166 180 167 177 173 147 161 168 145 167 184 144 171 168 174 153 169 140 170 161 168 177 179 186 168 185 189 176 185 196 196 182 193 198 204 198 192 205 195 194 193 190 203 202 189 218
149 195 177 185 180 162 165 173 181 157 164 170 160 173 165 169 174 173 177 161 151 178 186 174 155 185 156 167 148 179 182 193 185 203 180 195 193 198 210 218 185 187 203 204 204 210 265
170 177 192 187 174 179 173 175 176 173 171 170 173 169 162 159 167 172 178 176 185 187 171 167 179 168 147 185 182 185 187 190 188 186 203 195 194 203 183 194 197 199 196 217 213 266 268
200 167 172 187 196 191 180 190 184 171 183 172 176 185 182 174 180 178 182 171 173 158 170 180 179 185 189 183 186 186 199 183 200 194 186 188 198 196 215 194 192 200 213 210 266 272 255
207 193 197 187 189 192 194 192 183 189 184 184 173 185 180 180 176 172 178 176 166 177 171 188 176 193 192 184 186 178 195 184 189 181 179 197 202 197 212 191 201 223 210 203 272 256 253
Wind_Speed
14 14 15 21 21 19 16 16 15 13 15 14 11 7 6 5 4 8 3 3 2 5 3 2 8 3 7 1 13 11 15 11 17 13 15 16 26 14 8 16 16 19 17 19 14 9 13
14 15 12 14 14 19 16 12 14 13 10 6 8 3 2 6 6 3 1 3 5 10 2 6 6 11 12 11 6 10 21 23 20 18 12 11 11 12 13 10 23 20 22 18 23 25 23
15 22 13 11 10 10 12 9 8 5 4 6 6 6 3 5 5 9 8 1 8 3 7 4 15 16 10 25 28 21 25 19 12 21 23 11 21 22 18 27 21 28 26 24 20 22 31
8 14 13 11 15 12 9 7 9 8 6 6 7 10 8 10 10 9 7 14 5 5 8 23 15 16 26 22 19 24 22 12 10 15 27 20 31 26 21 20 29 29 28 27 22 30 24
22 9 9 14 12 12 11 11 12 11 18 19 12 12 13 13 8 6 4 3 8 10 11 20 14 14 23 30 30 18 23 32 32 32 28 22 29 20 24 29 23 28 21 23 30 37 38
30 23 14 16 21 17 15 16 14 15 16 15 7 6 14 7 6 4 5 13 13 18 24 14 21 24 11 29 33 22 32 33 30 23 37 24 27 41 30 33 37 35 40 25 38 38 28
20 42 26 28 20 22 20 21 21 10 7 19 21 13 15 22 10 17 8 6 11 8 19 25 22 26 29 30 35 23 14 14 37 21 25 30 42 43 30 33 41 36 38 45 33 40 52
33 38 23 30 24 19 20 18 17 22 25 16 12 22 17 10 13 8 12 10 18 15 21 26 10 30 36 10 31 15 28 38 40 41 24 27 32 31 39 46 39 48 45 39 44 35 45
38 35 41 34 29 29 20 22 25 24 21 25 25 17 23 16 20 15 25 16 23 24 18 29 31 22 31 26 25 33 14 42 38 43 45 41 33 44 39 42 44 45 46 48 51 46 47
37 47 41 35 37 28 27 27 23 30 32 24 24 25 20 16 28 25 20 25 24 22 29 34 24 22 35 16 17 22 34 29 31 35 45 39 42 52 58 46 49 50 52 53 54 50 50
47 39 40 45 42 35 33 33 29 35 27 27 35 24 30 32 28 26 32 27 29 28 30 27 28 29 27 32 30 42 47 43 35 40 43 43 46 56 48 51 54 57 57 58 55 57 56
48 40 48 44 44 43 42 42 38 37 33 32 30 34 36 35 36 31 31 32 33 34 29 33 32 32 29 27 43 39 50 45 49 47 50 44 51 50 55 56 59 60 63 61 58 65 61
54 46 48 44 50 50 48 47 38 42 38 40 38 34 31 32 37 34 38 41 36 36 37 36 38 40 36 42 36 52 48 43 44 46 56 55 51 60 58 59 68 50 58 67 65 69 71
67 55 55 53 34 39 47 49 39 47 46 45 42 43 43 40 40 44 42 43 44 42 44 41 42 42 41 37 49 48 53 55 51 49 52 51 63 63 65 68 69 71 75 78 74 74 76
65 72 62 60 56 55 52 53 50 50 48 47 45 47 45 45 44 45 45 44 44 44 44 45 45 46 50 46 47 51 59 59 59 55 55 61 63 62 72 75 78 80 81 83 85 60 83
72 68 66 72 62 60 43 35 56 54 44 51 50 49 45 49 49 46 48 47 46 49 48 50 48 48 53 57 55 61 62 62 62 65 66 59 63 66 73 75 83 85 84 90 90 87 77
79 72 69 71 68 62 61 62 53 42 44 53 42 52 51 52 53 50 52 50 52 51 49 52 55 55 57 58 60 65 66 67 64 65 67 70 66 73 77 82 84 86 89 89 95 85 90
84 80 76 69 44 50 66 56 51 62 60 57 58 50 57 57 55 55 55 55 55 57 57 56 59 61 61 61 63 69 69 70 72 71 69 77 78 74 85 63 88 81 93 88 92 90 89
89 90 90 84 82 53 65 58 67 67 59 50 62 61 60 61 62 62 57 60 59 63 59 59 60 64 64 66 66 63 70 70 72 74 70 73 76 76 86 88 82 80 88 90 76 101 95
90 96 97 93 65 62 77 73 73 71 74 68 65 57 52 65 66 66 65 66 62 65 64 65 66 59 63 71 69 70 70 73 75 71 75 74 74 84 84 86 84 90 83 91 93 90 93
108 98 98 89 92 67 44 43 71 71 64 69 68 69 63 64 66 69 66 68 70 61 61 70 71 71 76 81 82 82 75 80 74 78 72 73 83 80 79 89 89 88 95 98 97 101 103
102 108 105 103 95 75 80 81 80 80 82 74 55 74 65 70 69 70 73 72 75 70 72 63 73 72 76 85 72 76 58 76 76 77 83 79 80 99 98 97 98 102 99 95 98 98 98
116 110 88 89 103 95 91 76 89 83 82 80 78 73 73 76 75 73 78 76 73 76 81 62 85 77 66 79 79 66 84 77 76 89 99 86 92 92 97 101 95 89 98 98 98 102 98
115 115 105 98 106 95 105 80 70 91 78 64 84 76 75 76 79 78 63 83 84 83 85 76 70 76 87 81 85 90 85 84 95 91 86 88 93 93 96 102 87 106 92 95 110 92 102
120 97 116 102 110 107 78 82 97 77 89 92 79 84 81 85 80 88 75 90 83 87 92 93 93 87 95 95 89 94 101 101 83 103 109 111 106 93 115 91 90 92 95 103 103 102 116
81 122 115 118 115 90 93 109 110 77 87 94 79 97 88 91 94 94 98 85 84 100 97 88 78 97 80 86 78 88 88 103 88 113 80 103 100 108 122 115 91 95 100 101 102 110 100
101 107 122 124 111 116 110 106 108 104 98 94 102 94 82 82 93 100 101 102 100 99 89 85 100 86 73 100 98 105 106 112 95 95 121 101 99 108 97 96 97 100 101 120 117 99 95
136 97 101 119 127 124 119 122 117 99 114 102 105 107 107 104 103 103 104 97 104 80 90 107 106 112 110 101 106 108 118 87 121 96 86 90 102 102 112 98 97 105 116 116 97 93 94
136 128 128 122 121 124 122 120 115 117 116 116 102 109 103 104 103 100 104 108 86 110 102 115 98 118 117 108 111 89 118 79 83 79 89 111 110 104 114 103 108 128 115 81 90 94 93
Wind_Direction
250 227 226 232 242 242 242 245 253 261 253 242 257 226 271 303 287 300 172 225 244 284 261 253 103 251 278 337 84 303 50 3 46 3 298 34 300 350 343 331 357 14 332 353 282 302 325
220 212 259 223 238 250 238 230 243 244 243 254 182 219 232 285 301 281 312 239 259 281 203 236 248 277 288 292 320 304 299 300 314 309 313 26 312 38 315 334 302 356 18 324 19 10 4
218 255 223 218 223 233 240 166 141 187 215 246 261 216 260 269 240 288 289 205 262 189 111 176 264 279 284 284 290 293 299 306 320 35 31 318 301 302 358 299 347 356 2 315 339 356 288
202 215 208 200 185 181 192 220 208 224 221 235 245 269 270 278 281 259 254 277 248 127 258 274 260 269 280 286 291 295 300 325 349 337 301 16 312 11 311 318 304 358 309 337 345 319 343
269 224 201 240 224 233 223 224 241 230 256 265 269 269 270 273 251 254 216 230 239 255 264 274 270 271 280 287 293 304 300 300 302 304 308 342 330 347 324 314 334 314 355 340 319 305 304
270 263 238 234 252 247 255 258 259 263 264 258 264 255 257 246 271 257 302 255 248 255 273 266 276 281 282 287 296 298 299 293 296 320 302 319 313 304 345 330 299 301 297 318 306 304 327
235 263 263 275 246 251 253 258 267 237 238 270 270 265 263 257 274 248 279 262 271 249 280 269 274 277 277 293 286 288 4 344 295 315 304 294 297 297 319 315 335 310 330 297 303 334 300
260 269 237 257 257 257 245 236 243 261 270 273 273 270 270 276 269 270 276 261 256 234 259 263 264 277 284 300 273 313 278 295 292 293 321 326 303 316 298 296 314 331 324 319 327 306 303
252 251 277 276 253 270 230 233 252 246 246 265 275 262 273 267 268 259 269 242 270 269 245 263 270 293 269 281 310 275 285 285 289 293 292 298 310 300 314 310 315 311 318 321 314 325 318
238 264 250 270 275 237 229 235 235 263 275 244 257 273 257 274 283 274 280 252 286 258 271 277 262 276 281 288 304 275 278 283 325 292 292 299 312 293 301 303 300 297 296 296 324 301 310
240 241 242 248 250 247 250 245 241 261 245 244 274 254 273 261 253 276 272 280 284 279 264 292 255 257 306 268 263 274 291 319 311 292 290 299 296 294 307 309 304 311 297 318 301 315 305
240 272 263 241 243 248 254 255 256 253 251 251 252 255 261 260 272 267 273 275 286 277 282 268 267 268 278 291 279 271 286 314 287 291 287 305 296 299 303 303 303 307 311 301 305 314 304
240 256 251 249 243 249 242 251 242 252 252 260 260 260 261 264 263 270 273 283 276 274 282 275 273 278 281 298 268 289 281 299 298 288 292 296 310 299 303 306 303 301 305 305 312 303 308
246 237 238 239 262 258 245 245 289 250 258 257 251 262 266 263 263 269 268 271 277 276 281 274 283 277 273 272 277 282 298 287 296 300 292 301 301 300 299 300 307 310 305 305 309 305 304
240 254 242 241 243 243 246 246 252 252 254 252 268 262 264 262 261 266 273 279 275 280 283 284 286 279 292 285 289 275 289 298 289 296 294 292 296 308 301 303 308 304 305 306 304 306 304
246 240 244 257 245 243 262 268 245 250 257 256 263 262 269 267 267 275 272 273 276 279 280 285 283 285 286 290 280 289 285 287 301 298 306 303 301 300 308 300 304 308 307 303 306 309 308
248 244 248 246 245 247 244 250 253 263 270 256 270 257 260 264 267 268 271 275 273 274 278 280 280 284 284 288 277 282 286 292 301 301 304 298 308 307 306 310 306 307 306 304 301 305 303
245 248 245 261 251 256 246 250 275 249 249 252 256 265 275 262 267 265 269 271 270 275 276 280 284 283 285 276 285 281 285 288 299 297 301 299 300 307 300 301 299 304 297 305 297 303 305
246 250 248 247 248 249 268 265 253 252 276 284 254 256 258 261 268 267 285 274 270 277 277 280 280 286 285 283 282 282 291 291 298 294 306 305 302 299 296 298 309 302 299 305 300 299 295
246 246 250 249 249 249 251 248 248 248 251 255 254 263 284 271 270 272 272 277 269 282 277 278 280 293 293 289 282 290 294 298 296 301 301 305 298 295 303 315 306 311 306 302 304 308 296
243 247 245 252 252 252 249 251 254 251 258 261 252 255 266 267 272 273 276 276 278 284 287 281 283 282 289 290 293 296 291 297 293 299 301 296 293 297 304 303 312 311 303 310 303 306 300
248 245 248 251 248 250 247 245 250 248 252 254 273 259 268 266 269 274 276 277 277 280 277 287 278 283 288 294 286 290 300 294 299 294 307 287 297 313 312 297 306 314 311 302 307 294 299
238 248 247 257 253 256 255 257 255 248 252 256 258 264 265 268 269 271 275 280 279 278 282 287 285 283 294 288 290 295 297 293 300 309 312 295 307 317 316 311 308 309 310 308 310 307 301
246 243 249 253 251 257 256 258 255 259 255 265 265 266 261 269 268 275 283 276 280 281 284 286 286 287 290 287 291 298 296 295 303 310 314 313 301 314 316 316 309 314 299 300 313 303 302
236 249 244 253 248 253 247 254 257 260 263 265 260 269 268 272 263 276 278 279 279 282 285 284 285 286 292 293 294 298 298 302 306 311 313 314 315 310 318 306 305 303 301 311 312 301 315
244 236 247 241 248 255 259 257 256 255 263 265 264 268 269 272 275 278 278 278 279 283 285 284 289 291 287 289 290 298 304 302 305 308 302 316 313 317 317 314 299 299 310 309 308 314 304
239 244 241 242 250 248 253 254 256 259 262 264 265 267 270 271 276 277 278 281 283 285 285 282 290 286 288 295 298 300 301 304 305 307 307 313 310 314 298 304 307 308 304 315 315 305 304
238 240 245 247 242 245 251 250 254 261 258 263 265 264 266 271 273 275 278 279 281 279 284 288 290 289 290 293 296 300 298 303 302 304 306 307 311 309 311 303 303 310 314 314 304 305 307
237 243 242 245 249 246 249 251 255 254 257 260 266 264 267 270 272 276 277 280 282 284 285 284 291 287 288 293 297 298 299 302 306 298 298 310 310 309 313 302 308 314 313 300 304 308 307